Dewpoint
59 59 58 59 60 59 60 62 62 63 63 63 64 64 64 64 63 63 63 64 64 65 65 65 65 65 65 65 65 65 63 62 60 58 59 61 62 66 65 64 65 65 61 46 42 37 35 34 32 33 39 38 39 39 42 41 46 43 38 37 33 35 35 38 32 31 32 25 25 30 32 31 31 33 34 37 40 43 46 48 49 54 54 55 56 58 58 58
59 59 59 59 60 60 60 60 62 62 63 63 63 64 64 64 64 63 62 63 64 65 65 65 65 65 65 65 65 64 63 61 59 58 58 63 65 64 64 63 65 65 54 45 42 37 36 34 33 37 36 34 46 43 45 41 42 38 37 37 36 37 36 39 35 33 25 25 27 30 31 31 32 33 34 35 35 42 43 46 49 52 54 56 57 58 58 58
59 59 59 58 60 60 60 59 62 62 63 63 63 63 64 64 63 63 62 63 64 65 65 65 65 65 65 65 65 63 62 61 60 57 59 64 66 64 65 64 65 62 49 47 47 39 38 35 33 33 37 33 41 41 44 40 39 39 37 35 38 40 39 37 32 30 26 27 29 26 24 31 31 33 34 34 35 40 40 44 47 50 52 54 55 56 57 57
59 58 59 58 59 60 60 60 60 62 62 62 63 63 63 63 63 63 63 63 64 64 64 65 65 65 64 64 64 64 61 59 56 59 61 64 66 65 65 65 65 62 49 48 49 43 45 38 42 33 37 36 38 45 43 43 36 38 37 35 36 37 38 39 31 26 26 26 27 24 26 30 26 32 31 31 35 35 38 42 44 48 52 55 55 56 56 57
59 58 58 58 58 58 60 60 59 61 62 62 62 63 63 63 63 63 63 63 63 64 64 64 65 64 64 64 63 63 58 53 52 59 61 65 65 66 65 65 65 58 51 52 51 53 49 44 42 43 36 32 40 40 41 44 42 40 37 39 38 38 37 38 35 28 25 24 24 25 27 27 26 28 29 34 33 32 34 36 44 47 55 56 55 56 56 56
58 58 58 58 58 58 58 59 60 60 62 62 62 62 61 63 62 63 63 63 63 64 64 64 65 64 64 64 62 61 53 41 52 57 63 65 65 66 65 65 64 57 51 48 47 49 45 45 42 38 37 32 36 36 39 42 42 38 39 38 39 37 35 36 34 28 24 24 23 24 27 26 26 26 28 32 30 29 31 34 40 48 57 57 57 56 56 56
57 58 57 57 57 58 58 58 59 60 61 62 62 62 62 62 63 63 63 62 63 63 63 64 64 63 63 62 62 58 52 47 52 54 63 65 65 65 65 64 64 55 51 47 47 44 47 45 42 41 39 38 35 38 39 42 42 40 39 39 38 39 36 31 33 27 25 23 23 24 29 25 27 24 29 28 28 28 27 27 36 48 57 57 56 56 56 56
57 57 57 57 57 58 58 58 60 60 60 61 62 62 62 62 62 62 62 62 63 63 63 64 62 62 61 59 56 53 53 50 50 53 63 65 64 64 64 61 60 53 50 48 46 45 46 44 40 43 37 33 36 38 40 41 39 38 39 39 39 39 39 38 26 25 27 26 30 31 26 25 27 25 26 25 25 25 26 29 42 55 56 57 56 56 56 56
57 57 57 58 57 57 58 58 59 59 60 60 62 62 62 62 63 62 62 62 62 63 62 63 62 61 61 58 55 52 51 54 52 56 59 63 63 63 61 58 57 53 50 48 47 47 44 44 44 42 39 37 39 37 39 39 38 39 39 40 39 38 39 39 32 26 28 30 32 29 27 27 31 35 32 30 30 28 29 29 48 55 56 56 56 56 56 56
56 57 57 57 58 57 58 58 58 59 60 59 61 61 62 62 62 62 62 62 62 62 62 62 62 61 59 57 54 49 53 57 57 58 59 61 62 62 60 59 56 53 49 47 48 47 44 45 43 46 45 41 40 38 41 39 37 39 39 39 39 39 37 28 34 31 29 31 31 27 27 28 34 33 30 34 33 32 30 33 48 55 55 56 56 56 56 56
57 57 58 57 57 57 57 58 58 58 60 60 60 61 61 61 61 62 62 61 61 61 61 62 62 60 57 56 51 49 53 55 55 59 61 61 61 60 59 58 57 53 51 47 46 47 47 47 47 49 47 40 41 38 41 40 42 39 39 39 39 39 30 29 27 27 31 28 32 28 27 33 36 34 31 34 35 34 32 31 47 53 55 56 56 56 57 56
56 57 58 57 57 57 57 57 58 59 59 60 60 61 61 61 61 61 62 62 61 61 61 62 61 59 56 55 53 51 54 55 57 58 60 61 60 60 59 58 55 53 49 46 47 49 48 47 48 42 42 45 39 39 39 43 41 39 39 37 38 37 35 29 28 27 31 29 33 33 31 30 33 32 33 34 32 32 33 30 41 49 53 55 56 56 56 57
55 56 57 57 57 57 57 57 58 58 59 59 60 60 61 61 61 61 61 61 61 61 61 62 60 59 55 51 54 55 56 57 56 57 59 58 53 54 57 55 54 51 49 47 47 49 49 48 47 43 46 44 42 41 42 44 42 38 38 38 36 34 33 33 32 35 31 30 33 32 28 28 28 31 34 34 35 32 31 32 31 41 47 51 55 56 56 57
55 56 57 57 57 57 57 57 58 58 58 58 59 59 60 61 60 60 61 61 61 62 61 61 60 58 54 51 54 56 57 58 55 56 56 54 54 51 52 52 51 51 50 49 48 50 49 49 47 40 47 41 40 44 41 39 39 37 38 37 36 33 33 32 28 33 29 34 33 33 29 29 30 33 35 36 36 35 34 33 32 31 35 41 49 55 56 57
55 56 57 57 57 56 56 57 58 57 57 58 58 58 59 59 60 60 61 61 62 61 61 60 59 56 52 52 55 57 60 56 54 54 54 54 51 50 50 51 50 50 49 50 50 50 50 48 45 42 42 45 43 40 38 38 38 37 36 35 35 34 34 36 34 30 28 32 36 33 30 29 31 35 37 38 37 35 34 34 34 32 31 31 36 47 53 55
55 56 56 57 57 56 56 57 57 58 58 57 58 58 58 59 60 61 61 60 61 61 60 56 55 54 49 48 53 58 55 52 53 54 52 53 52 52 50 49 52 52 50 51 52 51 48 47 42 44 43 42 42 39 37 37 38 37 37 34 35 33 34 34 34 32 29 34 36 34 31 34 35 38 38 37 39 36 35 35 34 33 31 31 30 34 43 49
55 55 56 56 56 56 56 56 57 57 57 57 57 58 58 58 59 60 60 61 59 59 57 53 53 53 47 53 56 52 51 51 54 53 52 51 51 51 50 50 49 50 51 50 50 49 48 46 46 43 43 41 40 40 36 36 36 36 36 36 35 34 34 34 35 36 35 35 33 35 34 32 36 38 37 39 37 37 35 35 35 35 33 31 31 32 32 37
54 54 55 56 56 56 57 57 57 57 56 56 57 58 57 58 59 58 57 57 56 56 54 54 53 50 48 51 49 51 53 53 53 53 53 54 50 50 50 49 50 48 47 47 48 47 48 45 44 40 40 40 39 38 36 35 36 35 34 34 35 35 35 34 34 34 34 35 34 34 35 34 34 35 37 37 35 38 37 37 37 37 36 32 31 32 33 33
54 54 54 56 56 56 57 57 56 57 56 57 57 57 58 58 55 54 53 52 50 46 44 46 47 40 37 47 51 53 53 55 55 53 52 51 50 53 54 54 49 46 44 44 45 47 45 44 44 41 38 39 38 38 37 36 37 36 36 34 34 35 34 34 36 38 33 33 33 33 33 34 34 35 36 36 37 35 35 35 35 35 36 36 33 32 32 33
54 54 55 55 56 56 57 57 57 56 56 55 55 54 53 49 48 46 50 50 47 45 48 48 49 48 48 49 50 54 56 56 52 52 52 53 50 51 52 52 50 50 45 41 44 46 45 42 40 39 38 39 38 38 38 38 38 37 36 36 36 36 35 37 37 38 37 33 33 33 34 34 34 35 36 36 37 37 37 37 36 33 32 33 34 34 34 33
54 54 54 55 55 56 57 57 57 55 57 55 54 51 45 45 41 39 45 48 47 45 46 48 49 46 47 50 53 53 52 51 53 52 52 54 51 48 48 49 47 45 45 43 44 44 44 42 41 41 40 39 38 38 38 38 37 37 36 35 35 35 36 37 36 38 38 34 35 35 34 34 34 35 35 36 36 36 36 36 37 37 35 32 32 33 34 34
54 54 55 54 55 56 57 57 57 56 57 53 53 49 47 46 48 50 47 42 45 45 45 46 49 48 52 52 53 54 53 51 50 52 55 53 50 45 48 47 45 43 45 45 44 43 42 41 42 42 42 41 40 38 38 38 37 37 36 35 34 35 35 37 37 38 37 36 36 36 36 35 35 36 36 36 36 36 37 37 37 37 38 37 33 32 32 34
53 54 54 54 55 56 57 57 57 57 55 51 50 49 47 50 51 48 45 44 44 45 44 46 47 48 51 52 53 53 50 48 48 52 53 52 49 47 47 46 44 43 45 44 42 42 39 41 42 43 42 41 40 39 38 38 38 37 36 36 35 35 35 34 36 37 36 37 34 35 34 35 37 37 37 37 36 36 37 37 37 38 38 38 38 36 35 34
53 54 53 54 55 56 55 56 56 55 52 50 48 47 50 49 48 45 42 38 38 44 44 45 46 47 49 50 53 50 48 49 49 49 54 50 46 49 47 45 44 44 44 45 43 42 40 41 42 42 42 41 40 39 38 38 37 38 38 36 35 35 36 36 36 36 34 34 34 34 35 35 36 36 36 37 37 36 36 37 37 37 39 39 40 40 39 37
53 53 54 54 55 55 55 56 53 51 52 51 48 47 51 50 46 43 39 38 40 41 44 43 45 46 49 50 52 50 48 49 50 52 54 51 49 48 45 46 45 42 44 44 44 43 42 41 42 42 41 41 40 39 39 38 37 37 37 38 38 37 36 36 35 35 33 33 34 33 31 32 33 35 35 35 35 35 36 36 36 37 37 38 37 37 38 39
53 53 54 54 55 55 56 51 51 52 49 48 48 49 49 47 45 40 35 31 30 36 41 38 46 43 51 48 48 47 48 46 50 52 54 53 52 48 48 46 45 41 43 44 43 44 42 42 41 41 40 39 40 39 39 39 38 37 37 39 38 38 38 37 33 35 31 32 33 34 32 28 30 33 35 35 36 35 36 36 36 36 37 37 38 38 38 38
53 53 53 54 55 55 51 46 53 50 47 47 50 50 48 46 44 37 31 23 21 34 36 44 41 40 47 47 48 47 39 42 51 53 53 54 50 54 46 45 46 46 45 45 42 40 42 40 41 41 40 40 39 39 39 39 38 37 38 40 39 39 38 37 35 36 33 31 34 33 33 32 32 33 34 34 34 34 34 35 35 35 35 36 37 37 38 39
53 54 53 53 55 54 51 50 50 48 47 49 51 50 48 45 45 39 30 19 17 38 36 41 40 45 47 49 47 42 42 49 44 48 53 54 53 50 48 45 44 44 44 44 35 44 42 40 40 40 39 39 39 39 40 40 38 37 40 41 40 41 39 38 36 33 33 33 34 31 31 30 31 31 34 34 33 33 33 33 33 34 35 35 35 36 37 37
53 53 53 54 55 54 52 49 49 47 49 51 51 50 47 46 44 34 25 17 34 30 45 38 46 46 44 48 45 43 43 45 41 49 52 53 53 50 46 46 46 45 45 43 40 42 44 41 40 40 39 38 39 39 40 40 38 37 41 41 40 39 37 39 36 37 33 34 33 34 33 32 32 33 32 33 33 32 32 34 34 33 33 34 35 35 36 36
53 53 53 54 54 52 50 50 47 50 51 50 50 49 48 44 39 29 21 14 35 22 37 39 39 39 46 42 42 43 42 43 47 49 51 48 50 50 48 51 47 45 44 45 43 43 44 44 43 41 40 39 38 39 40 40 39 42 42 40 36 34 32 32 34 33 34 34 35 36 34 34 30 29 32 33 33 33 33 34 35 34 35 34 34 34 35 34
53 53 53 54 50 50 49 47 49 50 51 50 49 49 44 38 31 24 17 19 32 34 40 38 34 44 41 40 38 41 40 44 46 48 45 47 46 48 48 46 47 44 42 43 42 43 44 43 42 43 41 40 39 38 40 42 42 41 35 36 38 36 35 35 34 33 33 31 34 36 36 35 31 30 33 33 34 34 34 34 35 35 35 36 36 35 35 34
53 53 54 54 52 50 46 45 49 50 49 49 48 45 40 27 31 23 18 34 24 30 34 34 39 41 41 42 40 40 40 41 44 45 43 44 43 42 44 40 43 35 35 38 37 42 41 41 42 42 43 39 39 38 40 43 42 40 40 38 33 30 34 30 35 30 32 31 32 34 35 33 34 32 29 33 32 32 34 35 35 35 36 36 36 34 34 35
52 53 53 54 52 49 47 49 50 49 48 48 45 43 33 26 19 26 28 25 17 33 33 36 38 40 40 39 38 40 40 38 44 44 44 44 43 42 44 44 44 39 32 37 37 38 38 41 42 42 42 42 40 38 38 39 41 40 38 36 31 30 30 26 30 32 31 33 34 31 34 32 33 33 34 34 35 33 32 33 35 35 34 34 33 32 33 35
53 53 52 53 51 50 50 50 49 48 47 46 43 37 32 24 22 34 27 22 25 34 36 35 39 39 39 36 37 39 37 39 42 42 43 40 41 39 41 42 43 39 35 34 35 36 32 33 39 41 39 41 39 38 39 39 41 39 39 36 32 30 30 25 26 27 27 28 30 33 31 29 31 31 28 28 34 35 34 33 33 33 33 33 33 35 35 35
52 52 52 51 50 50 50 49 48 47 46 43 38 32 25 23 30 27 25 23 27 34 35 38 37 37 36 36 38 39 37 36 42 41 40 39 37 39 38 39 43 41 38 34 33 34 34 33 40 44 42 42 39 40 40 40 41 40 40 39 34 30 31 27 25 27 29 29 27 29 30 31 29 32 34 32 32 31 31 33 33 33 33 33 33 34 34 34
51 50 49 48 48 50 50 50 48 47 45 41 34 29 26 28 25 29 27 31 32 34 36 37 37 34 34 33 35 38 39 34 40 40 39 40 39 38 39 39 41 41 38 34 35 30 33 32 38 43 43 41 40 40 40 41 34 40 40 36 36 35 32 27 26 26 26 25 27 25 30 32 33 32 33 34 34 32 30 30 31 32 33 34 34 34 34 34
48 49 46 48 48 50 50 50 49 46 43 39 32 27 31 28 32 30 34 32 32 37 36 30 31 33 32 31 34 37 37 37 38 38 34 40 37 39 38 40 41 42 42 40 33 36 33 32 39 41 41 43 41 40 42 40 39 42 37 40 40 41 38 30 25 22 23 24 21 28 26 26 26 25 30 30 33 33 31 30 29 30 32 33 35 35 35 35
46 47 47 46 48 50 50 49 47 44 41 37 31 32 31 30 33 31 34 36 36 36 33 32 33 35 32 32 32 35 37 33 35 37 34 39 34 40 38 38 42 40 41 42 36 35 38 31 34 41 41 42 44 43 42 44 44 41 38 43 37 33 32 32 30 25 22 23 21 25 27 26 26 25 25 30 31 32 32 31 29 27 27 29 31 33 34 33
47 46 40 45 50 50 49 49 46 41 38 33 31 31 31 30 35 34 35 36 36 35 32 33 32 33 34 32 32 36 36 31 37 35 32 35 32 38 38 39 40 42 41 41 39 38 37 31 33 37 40 41 43 42 35 40 44 44 43 42 40 37 35 32 31 29 27 23 18 21 23 23 28 27 26 28 32 33 32 31 30 28 28 28 28 30 32 32
44 40 37 45 50 50 50 48 43 40 35 30 31 30 32 32 35 37 36 37 35 34 31 32 31 32 33 32 33 33 36 32 35 35 32 35 33 38 38 39 38 42 42 41 39 42 35 34 29 35 39 41 37 41 38 40 38 39 39 38 38 36 37 36 33 31 27 24 22 19 19 21 23 26 28 28 28 32 33 33 33 32 31 31 30 31 32 33
43 38 37 46 49 50 49 45 39 34 32 33 34 31 31 30 35 35 35 36 35 34 32 33 33 32 32 31 31 33 34 33 34 35 33 32 34 32 37 37 40 40 42 41 39 40 34 33 31 34 35 37 39 43 42 41 41 40 40 38 40 37 33 31 30 34 32 28 24 20 20 22 22 29 29 30 30 29 33 34 33 33 32 32 31 30 31 32
38 32 34 45 49 48 44 35 32 35 33 31 31 32 30 39 35 33 34 34 34 31 31 29 29 31 33 32 32 33 33 33 33 34 34 32 35 34 36 40 39 42 41 38 38 40 38 35 34 32 34 36 38 38 40 41 42 41 42 39 42 39 37 32 28 31 31 31 27 22 20 24 26 27 30 30 30 29 30 32 32 32 31 30 29 30 30 31
35 33 43 46 48 46 40 33 34 33 31 33 36 35 37 34 33 33 34 34 32 31 29 29 29 30 29 30 31 33 33 32 33 32 34 34 33 35 34 40 41 42 40 38 40 41 39 33 32 32 33 34 37 38 39 39 40 39 40 40 40 39 39 37 33 31 31 31 29 27 26 26 28 26 28 29 30 28 28 29 30 29 28 28 29 30 30 31
36 36 38 44 45 45 37 28 28 31 31 32 33 33 34 34 33 31 32 33 30 31 29 29 30 31 29 31 32 31 34 28 32 32 31 32 33 34 36 40 42 41 39 39 37 42 34 33 34 31 30 31 33 36 37 37 38 36 38 41 41 41 40 39 36 32 30 31 31 29 25 27 29 27 27 27 26 26 26 26 28 28 28 28 28 29 30 31
36 37 36 39 42 42 34 32 31 31 31 31 32 32 33 32 32 34 33 32 33 31 31 29 29 31 30 30 27 31 33 31 28 33 32 32 33 34 35 40 42 41 41 40 40 41 35 35 34 29 26 25 25 26 28 32 34 36 38 39 40 40 39 38 34 34 31 32 32 29 28 29 27 26 26 26 26 25 26 26 27 28 28 27 29 30 30 32
31 27 32 33 36 35 34 34 35 32 30 30 30 31 32 30 31 30 35 32 33 32 30 31 31 31 28 31 28 27 31 32 27 27 32 31 31 33 34 39 41 41 41 41 41 39 32 34 35 32 29 28 28 30 34 38 36 33 34 36 37 40 40 40 37 33 31 33 31 32 31 30 29 28 25 26 23 25 25 26 25 26 26 28 29 31 32 32
33 29 29 27 33 33 32 34 33 33 30 32 28 31 30 31 31 30 31 29 32 31 30 30 31 30 29 30 27 28 28 31 31 29 31 32 29 32 32 35 40 41 41 40 41 37 31 32 35 35 33 32 32 31 35 37 35 36 35 35 37 37 38 38 36 33 37 33 31 33 33 31 30 30 27 25 25 24 24 24 24 24 25 28 29 29 31 28
28 30 34 36 29 27 30 30 33 32 31 31 28 29 30 31 30 29 30 29 32 32 28 26 29 29 31 31 29 28 29 30 30 31 32 30 33 33 34 33 37 40 41 38 39 39 34 33 34 35 34 34 34 32 35 35 35 36 36 36 36 37 37 36 36 37 37 33 31 34 34 32 31 31 27 26 25 23 23 23 24 24 24 24 26 26 27 27
34 33 33 35 29 29 31 32 33 32 30 30 30 29 29 30 29 29 28 28 30 29 29 26 30 28 30 28 30 28 30 29 29 28 30 30 32 31 32 32 34 34 38 38 40 35 32 33 33 34 33 34 34 33 35 34 34 35 35 36 37 37 37 38 37 38 38 37 38 38 37 36 34 33 30 29 28 26 25 26 26 25 25 24 25 26 26 26
30 29 28 32 31 32 33 33 32 30 29 33 28 28 30 30 29 26 27 28 28 29 28 28 29 28 29 27 27 25 28 30 30 30 29 33 30 31 33 33 31 33 37 38 39 38 36 32 35 32 32 32 33 33 33 33 32 33 35 36 37 38 38 38 38 38 38 38 38 37 37 36 38 37 34 32 30 29 28 27 26 26 26 24 24 24 25 26
35 35 33 30 29 30 32 32 30 29 27 27 27 28 29 30 28 28 26 27 28 27 27 28 29 29 29 27 27 28 30 26 28 30 30 34 33 32 34 31 33 31 35 35 36 36 36 31 34 32 30 31 33 32 33 33 33 33 33 35 36 36 36 37 37 38 37 35 36 36 35 36 41 41 37 34 31 30 29 28 27 28 26 25 25 24 24 25
35 36 35 32 27 31 30 30 30 28 25 28 29 28 29 29 29 29 27 27 29 30 30 30 30 29 28 27 25 26 29 29 30 31 31 34 36 34 35 34 33 32 33 34 34 33 34 34 33 32 29 30 33 32 32 32 32 31 32 33 35 36 36 37 38 38 38 37 35 34 35 39 41 41 40 39 39 36 31 31 30 29 29 28 26 26 26 26